{"data":{"norad_id":65852,"epoch":"2026-09-20T20:34:20.431488Z","epoch_age_seconds":115853,"freshness":"FRESH","line1":"1 65852U 25222B   26263.85718092  .00001127  00000+0  11176-3 0  9997","line2":"2 65852  34.9972  48.7991 0003205 245.4044 114.6327 14.91984809 53312","mean_motion":14.91984809,"eccentricity":0.0003205,"inclination_deg":34.9972,"raan_deg":48.7991,"arg_perigee_deg":245.4044,"mean_anomaly_deg":114.6327,"bstar":0.00011176,"rev_number":5331,"period_min":96.515727996263,"perigee_km":589.51353108839,"apogee_km":593.98122697535,"semimajor_km":6969.8843790319,"source":"CELESTRAK","updated_at":"2026-09-21T09:00:15.603937Z"}}